Regional Weather Roundup
Issued by NWS Upton, NY

Current Version | Previous Version | Text Only | Print | Product List | Glossary On
Versions: 1 2 3 4 5 6 7 8 9 10 11 12 13 14 15 16 17 18 19 20 21 22 23 24 25 26 27 28 29 30 31 32 33 34 35 36 37 38 39 40 41 42 43 44 45 46 47 48 49
000
ASUS41 KOKX 180905
RWROKX

REGIONAL WEATHER ROUNDUP
NATIONAL WEATHER SERVICE NEW YORK NY
400 AM EST THU DEC 18 2014

NOTE: "FAIR" INDICATES FEW OR NO CLOUDS BELOW 12,000 FEET WITH NO
SIGNIFICANT WEATHER AND/OR OBSTRUCTIONS TO VISIBILITY.

NYZ071-072-176-178-NJZ106-104-181000-
NEW YORK CITY METRO AREA


CITY           SKY/WX    TMP DP  RH WIND       PRES   REMARKS
CENTRAL PARK   CLOUDY    40  24  53 VRB7G20   29.92F
LAGUARDIA APRT CLOUDY    40  25  55 NW22G33   29.90F WCI  30
KENNEDY INTL   CLOUDY    41  25  53 W18G24    29.91S
NEWARK/LIBERTY CLOUDY    39  26  59 W13G18    29.92F WCI  31
BRNX BOT. GARD   N/A    N/A N/A N/A W16       29.91R
TETERBORO      CLOUDY    39  24  55 NW9G17    29.91S WCI  33
$$

NYZ177-179-078>081-181000-
LONG ISLAND NEW YORK

CITY           SKY/WX    TMP DP  RH WIND       PRES   REMARKS
FARMINGDALE    CLOUDY    40  25  55 NW14G26   29.88S WCI  32
ISLIP          CLOUDY    40  26  57 NW20G30   29.85S WCI  30
SHIRLEY        CLOUDY    40  27  59 NW21G26   29.87R WCI  30
WESTHAMPTON    CLOUDY    40  28  62 NW10G22   29.85F WCI  33
MONTAUK POINT    N/A     43  32  65 W15G22    29.82S
$$

NYZ052-065-067-181000-
HUDSON VALLEY

CITY           SKY/WX    TMP DP  RH WIND       PRES   REMARKS
WHITE PLAINS   MOCLDY    37  26  64 NW20G29   29.86F WCI  27
NEWBURGH       CLOUDY    37  28  70 W16G30    29.89S WCI  28
MONTGOMERY     CLOUDY    37  24  59 NW10G22   29.88F WCI  30
POUGHKEEPSIE   CLOUDY    39  25  57 W12       29.87S WCI  32
ALBANY         LGT SNOW  35  29  78 W10G20    29.85S WCI  27
$$

NJZ001-105-106-008-010-013-015-019>022-104-181000-
NEW JERSEY

CITY           SKY/WX    TMP DP  RH WIND       PRES   REMARKS
NEWARK/LIBERTY CLOUDY    39  26  59 W13G18    29.92F WCI  31
TETERBORO      CLOUDY    39  24  55 NW9G17    29.91S WCI  33
CALDWELL       CLOUDY    38  24  57 NW9       29.92F WCI  31
MORRISTOWN       N/A     39  27  60 W8        29.93S WCI  34
SOMERVILLE     PTCLDY    37  24  59 VRB6G17   29.93S WCI  32
SUSSEX         CLOUDY    36  24  62 MISG      29.91F
ANDOVER          N/A     35  23  61 N8        29.93S WCI  29
TRENTON        CLEAR     36  21  54 W13G21    29.97R WCI  27
MILLVILLE      CLEAR     35  21  56 W9        30.01F WCI  28
ATLANTIC CITY  CLEAR     33  23  66 W9        29.99S WCI  25
WRIGHTSTOWN    CLEAR     35  22  58 W13G18    29.95S WCI  27
TOMS RIVER     PTCLDY    36  21  55 W15       29.96S WCI  26
BELMAR         CLOUDY    37  21  52 W13G20    29.93F WCI  29
$$

PAZ047>061-062-071-181000-
EASTERN PENNSYLVANIA

CITY           SKY/WX    TMP DP  RH WIND       PRES   REMARKS
PHILADELPHIA   CLEAR     36  19  50 W14       30.02S WCI  27
ALLENTOWN      CLEAR     34  21  59 W13G22    29.97R WCI  25
SCRANTON       MOCLDY    34  21  59 W15       29.95F WCI  24
$$

CTZ002-004>006-009-010-012-RIZ004-006-007-MAZ004-011-015-181000-
SOUTHERN NEW ENGLAND
 IN CT

CITY           SKY/WX    TMP DP  RH WIND       PRES   REMARKS
BRADLEY INTL   CLOUDY    39  27  62 W15       29.80R WCI  31
HARTFORD       CLOUDY    40  27  59 NW6G18    29.83R
DANBURY        CLOUDY    37  24  59 W12G18    29.86S WCI  29
WTRBRY/OXFORD  MOCLDY    36  25  64 NW6       29.83S WCI  31
BRIDGEPORT     CLOUDY    40  28  62 W16       29.86S WCI  31
MERIDEN        CLOUDY    39  29  67 NW8G22    29.84R WCI  33
NEW HAVEN      CLOUDY    43  29  57 NW8       29.85R
CHESTER        LGT RAIN  37  32  81 W8G16     29.82R WCI  31
GROTON         CLOUDY    38  32  79 W10       29.80S WCI  31
WILLIMANTIC    CLOUDY    39  29  67 W10G20    29.79R WCI  32

 IN RI

CITY           SKY/WX    TMP DP  RH WIND       PRES   REMARKS
PROVIDENCE     CLOUDY    39  29  67 W13       29.75F WCI  31
BLOCK ISLAND   MOCLDY    41  28  60 W17G26    29.79S
WESTERLY       CLOUDY    39  32  76 W8        29.80S WCI  33

 IN MA

CITY           SKY/WX    TMP DP  RH WIND       PRES   REMARKS
BOSTON         CLOUDY    40  30  67 W13       29.71F WCI  32
WORCESTER      CLOUDY    34  28  79 W14       29.70R WCI  25
WESTFIELD      CLOUDY    38  28  67 NW15G24   29.78R WCI  29
PROVINCETOWN   CLOUDY    41  30  65 W17G23    29.70F
NANTUCKET      MOCLDY    40  31  70 W16G23    29.74S WCI  31
$$

ANZ330-335-338-340-345-350-353-355-181000-
COASTAL MARINE OBSERVATIONS


STATION/POSITION TIME  SKY/WX   TEMP    WIND        PRES    VSBY  WAVE
                                AIR SEA DIR/SP/G                  HT/PER
                 (UTC)          (F)     (DEG/KT/KT) (MB)    (MI)  (FT/S)
NY HARB ENTRANCE 0900            41 46  290/ 23/ 29 1012.6          4/ 4
4S FIRE IS       0900               46                N/A           5/ 6
20S FIRE ISLAND  0800            40 50              1011.7          7/ 6
23SW MTP         0900                                 N/A           5/ 5
HUDSON CANYON    0900            43 55  290/ 25/ 31 1011.4         10/ 7
EXECUTION ROCKS  0900            40 42  300/ 21/ 31   N/A
WESTERN LI SOUND 0900            41     290/ 16/ 21   N/A           2/ 3
CENTRAL LI SOUND 0800            42 45  280/ 17/ 23   N/A           3/ 4
EASTERN LI SOUND NOT AVBL
ROBBINS REEF     0900            39     310/ 16/ 21 1011.9
$$


>>>>>>>>>>>>>>>>>>>>>>>>>>>> KEY <<<<<<<<<<<<<<<<<<<<<<<<<<<
>                                                          <
>     SKY/WX - SKY CONDITION/PRESENT WEATHER               <
>     TMP    - TEMPERATURE IN FAHRENHEIT                   <
>     DP     - DEWPOINT IN FAHRENHEIT                      <
>     RH     - RELATIVE HUMIDITY IN PERCENT                <
>     WIND   - DIRECTION AND SPEED IN MPH                  <
>     PRES   - MEAN SEA LEVEL PRESSURE IN INCHES OF HG     <
>     WCI    - WIND CHILL INDEX                            <
>     VSB    - VISIBILITY IN MILES                         <
>     HX     - HEAT INDEX                                  <
>     TC     - TEMPERATURE IN CELSIUS                      <
>     VRB    - VARIABLE WIND DIRECTION                     <
>                                                          <
>>>>>>>>>>>>>>>>>>>>>>>>>>>> KEY <<<<<<<<<<<<<<<<<<<<<<<<<<<




USA.gov is the U.S. government's official web portal to all federal, state and local government web resources and services.